Simultaneous Nadir Overpasses (SNOs) Predictions

Prediction of SNOs between AQUA and GOES-15 Satellite Orbit:

Table of predicted SNOs for the next 14.0 days since TLE Epoch: 12/3/2022
Index Date Time (AQUA) AQUA Lat,Lon GOES-15 Lat,Lon Distance(km) Time Diff (sec)
1 12/03/2022 22:12:37 0.02,-127.52 -0.02,-127.84 35.19 80
2 12/05/2022 21:59:41 0.69,-124.37 -0.03,-127.78 386.88 80
3 12/06/2022 10:20:45 0.39,-129.48 0.02,-127.83 187.89 80
4 12/08/2022 10:07:49 -0.30,-126.33 0.02,-127.76 163.18 80
5 12/08/2022 22:29:01 -0.84,-131.46 -0.01,-127.67 431.51 80
6 12/10/2022 22:16:04 -0.19,-128.30 -0.01,-127.60 80.93 80
7 12/12/2022 22:03:07 0.47,-125.15 -0.01,-127.52 269.47 80
8 12/13/2022 10:24:11 0.59,-130.26 0.00,-127.57 305.44 80
9 12/15/2022 10:11:14 -0.09,-127.10 0.00,-127.49 44.72 80
